Location: USNO
(38.9242°N, 77.0663°W)
Time: 22:13:47
(UTC-04:00)

Hubble Space Telescope - Pass Details

Date: 09 October 2017
Orbit: 537 x 541 km, 28.5° (Epoch: 17 October)

Event Time Altitude Azimuth Distance (km) Brightness Sun altitude
Exits shadow 05:17:43 15° 170° (S) 1,477 3.0 -23.0°
Drops below altitude 10° 05:19:20 10° 149° (SSE) 1,787 3.7 -22.7°
Sets 05:22:14 0° 128° (SE) 2,677 4.9 -22.1°
